Hourly Data Report for October 16, 2014

All times are specified in Local Standard Time (LST). Add 1 hour to adjust for Daylight Saving Time where and when it is observed.

QIKIQTARJUAQ A
NUNAVUT

67°32'48.000" N
64°01'54.000" W
5.50 m
2400577
YVM

Download Data

Hourly Data (October 2014)
Hourly Data Report for October 16, 2014
Temp Definition
°C
Dew Point Temp Definition
°C
Rel Hum Definition
%
Wind Dir Definition
10's deg

Wind Spd Definition
km/h
Visibility Definition
km
Stn Press Definition
kPa
Hmdx Definition


Wind Chill Definition


Weather Definition


TIME
00:00 Legend Double Dagger -1.6 -4.3 82   0 16.1 100.34     LegendNANA
01:00 Legend Double Dagger -1.2 -2.2 93 7 9 3.2 100.38   -4 Snow
02:00 Legend Double Dagger -0.6 -2.8 85   0 16.1 100.40     LegendNANA
03:00 Legend Double Dagger -0.6 -2.8 85 22 8 16.1 100.44   -3 LegendNANA
04:00 Legend Double Dagger -0.9 -3.1 85 17 5 16.1 100.47   -3 LegendNANA
05:00 Legend Double Dagger -0.9 -3.6 82 14 28 16.1 100.46   -7 Snow
06:00 Legend Double Dagger -0.9 -3.0 86 14 30 16.1 100.48   -8 LegendNANA
07:00 Legend Double Dagger -1.4 -4.3 81 12 18 16.1 100.54   -7 LegendNANA
08:00 Legend Double Dagger -1.3 -5.1 75 13 18 16.1 100.56   -7 LegendNANA
09:00 Legend Double Dagger -1.1 -4.9 75 27 9 16.1 100.57   -4 LegendNANA
10:00 Legend Double Dagger -2.6 -6.2 76 16 5 16.1 100.56   -5 LegendNANA
11:00 Legend Double Dagger -3.4 -6.8 77 6 9 16.1 100.57   -7 LegendNANA
12:00 Legend Double Dagger -3.5 -7.1 76 LegendMM 4 16.1 100.59   -5 LegendNANA
13:00 Legend Double Dagger -3.8 -6.6 81 13 8 16.1 100.62   -7 LegendNANA
14:00 Legend Double Dagger -3.0 -6.1 80 13 5 16.1 100.64   -5 LegendNANA
15:00 Legend Double Dagger -4.7 -7.2 83 23 8 16.1 100.67   -8 LegendNANA
16:00 Legend Double Dagger -3.9 -7.2 78 19 17 16.1 100.68   -10 LegendNANA
17:00 Legend Double Dagger -3.3 -7.7 72 19 21 16.1 100.67   -10 LegendNANA
18:00 Legend Double Dagger -3.5 -8.7 68 19 21 16.1 100.66   -10 LegendNANA
19:00 Legend Double Dagger -2.8 -8.3 66 17 5 16.1 100.68   -5 LegendNANA
20:00 Legend Double Dagger -2.4 -8.5 63 18 13 16.1 100.69   -7 LegendNANA
21:00 Legend Double Dagger -2.2 -6.8 71 18 8 16.1 100.68   -5 LegendNANA
22:00 Legend Double Dagger -1.9 -6.5 71 20 15 16.1 100.68   -7 LegendNANA
23:00 Legend Double Dagger -0.6 -5.3 71 18 15 16.1 100.66   -5 LegendNANA

Notes on Data Quality.

Legend

  • E = Estimated
  • M = Missing
  • NA = Not Available
  • ‡ = Partner data that is not subject to review by the National Climate Archives
Date modified: